Satellite: NOAA-15
Catalog number: 25338
Epoch time: 06319.94229453
Element set: 0749
Inclination: 098.5237 deg
RA of node: 317.7576 deg
Eccentricity: 0.0009855
Arg of perigee: 294.1764 deg
Mean anomaly: 065.8379 deg
Mean motion: 14.24611328 rev/day
Decay rate: 9.5e-07 rev/day^2
Epoch rev: 44232
Checksum: 344
Satellite: RESURS
Catalog number: 25394
Epoch time: 06320.74700524
Element set: 504
Inclination: 098.4728 deg
RA of node: 018.3392 deg
Eccentricity: 0.0002354
Arg of perigee: 085.0337 deg
Mean anomaly: 275.1110 deg
Mean motion: 14.24117757 rev/day
Decay rate: 2.7e-07 rev/day^2
Epoch rev: 43411
Checksum: 264
Satellite: FENGYUN1
Catalog number: 25730
Epoch time: 06319.57218437
Element set: 0876
Inclination: 098.6412 deg
RA of node: 306.4924 deg
Eccentricity: 0.0015351
Arg of perigee: 069.2623 deg
Mean anomaly: 291.0174 deg
Mean motion: 14.11817871 rev/day
Decay rate: -1.38e-06 rev/day^2
Epoch rev: 38737
Checksum: 309
Satellite: OKEAN-0
Catalog number: 25860
Epoch time: 06319.58718392
Element set: 0904
Inclination: 097.7313 deg
RA of node: 326.8563 deg
Eccentricity: 0.0001456
Arg of perigee: 039.8908 deg
Mean anomaly: 320.2404 deg
Mean motion: 14.73404228 rev/day
Decay rate: 1.26e-06 rev/day^2
Epoch rev: 39404
Checksum: 301
Satellite: NOAA-16
Catalog number: 26536
Epoch time: 06319.96077227
Element set: 0137
Inclination: 099.0885 deg
RA of node: 288.5195 deg
Eccentricity: 0.0011191
Arg of perigee: 054.8500 deg
Mean anomaly: 305.3695 deg
Mean motion: 14.12384465 rev/day
Decay rate: 2.82e-06 rev/day^2
Epoch rev: 31700
Checksum: 313
Satellite: NOAA-17
Catalog number: 27453
Epoch time: 06319.75250313
Element set: 0157
Inclination: 098.6076 deg
RA of node: 028.9073 deg
Eccentricity: 0.0011593
Arg of perigee: 359.2683 deg
Mean anomaly: 000.8491 deg
Mean motion: 14.23826728 rev/day
Decay rate: 6.2e-07 rev/day^2
Epoch rev: 22834
Checksum: 310
Satellite: NOAA-18
Catalog number: 28654
Epoch time: 06319.74590616
Element set: 0719
Inclination: 098.8039 deg
RA of node: 259.8787 deg
Eccentricity: 0.0014410
Arg of perigee: 149.6448 deg
Mean anomaly: 210.5538 deg
Mean motion: 14.11010969 rev/day
Decay rate: 4.13e-06 rev/day^2
Epoch rev: 07675
Checksum: 336
/EX
SB KEPS @ AMSAT $ORB06320.M
Orbital Elements 06320.MISC
HR AMSAT ORBITAL ELEMENTS FOR MANNED AND MISCELLANEOUS SATELLITES
FROM WA5QGD FORT WORTH,TX November 16, 2006
Send SUBSCRIBE KEPS/UNSUBSCRIBE KEPS to majordomo at amsat.org only
BID: ORB06320.M
TO ALL RADIO AMATEURS BT
Satellite: HUBBLE
Catalog number: 20580
Epoch time: 06319.85527371
Element set: 740
Inclination: 028.4670 deg
RA of node: 141.1289 deg
Eccentricity: 0.0003352
Arg of perigee: 352.8930 deg
Mean anomaly: 007.1608 deg
Mean motion: 15.00131995 rev/day
Decay rate: 5.25e-06 rev/day^2
Epoch rev: 70789
Checksum: 287
Satellite: UARS
Catalog number: 21701
Epoch time: 06319.96581420
Element set: 0924
Inclination: 056.9734 deg
RA of node: 157.4861 deg
Eccentricity: 0.0104449
Arg of perigee: 139.0032 deg
Mean anomaly: 221.8931 deg
Mean motion: 15.45418685 rev/day
Decay rate: 8.016e-05 rev/day^2
Epoch rev: 83275
Checksum: 307
Satellite: PO-34
Catalog number: 25520
Epoch time: 06320.73592730
Element set: 611
Inclination: 028.4584 deg
RA of node: 090.4966 deg
Eccentricity: 0.0005800
Arg of perigee: 099.6143 deg
Mean anomaly: 260.5105 deg
Mean motion: 15.16843754 rev/day
Decay rate: 7.73e-06 rev/day^2
Epoch rev: 44523
Checksum: 294
Satellite: ISS
Catalog number: 25544
Epoch time: 06321.02001354
Element set: 75
Inclination: 051.6316 deg
RA of node: 119.7405 deg
Eccentricity: 0.0011326
Arg of perigee: 223.4017 deg
Mean anomaly: 236.1840 deg
Mean motion: 15.78132444 rev/day
Decay rate: 1.7075e-04 rev/day^2
Epoch rev: 45727
Checksum: 255
Satellite: OO-38
Catalog number: 26063
Epoch time: 06319.51339414
Element set: 0768
Inclination: 100.2053 deg
RA of node: 277.8896 deg
Eccentricity: 0.0037185
Arg of perigee: 041.4777 deg
Mean anomaly: 318.9212 deg
Mean motion: 14.35784689 rev/day
Decay rate: 2.5e-07 rev/day^2
Epoch rev: 35639
Checksum: 335
Satellite: NO-45
Catalog number: 26932
Epoch time: 06318.57708341
Element set: 0463
Inclination: 067.0538 deg
RA of node: 340.0342 deg
Eccentricity: 0.0004514
Arg of perigee: 238.8105 deg
Mean anomaly: 121.2553 deg
Mean motion: 14.29540426 rev/day
Decay rate: -9.0e-08 rev/day^2
Epoch rev: 26746
Checksum: 286
Satellite: UWE-1
Catalog number: 28892
Epoch time: 06319.71982713
Element set: 0606
Inclination: 098.1475 deg
RA of node: 215.3414 deg
Eccentricity: 0.0018564
Arg of perigee: 059.5711 deg
Mean anomaly: 300.7326 deg
Mean motion: 14.59422296 rev/day
Decay rate: 2.69e-06 rev/day^2
Epoch rev: 05607
Checksum: 315
Satellite: CO-58
Catalog number: 28895
Epoch time: 06319.70569515
Element set: 0587
Inclination: 098.1501 deg
RA of node: 215.4612 deg
Eccentricity: 0.0018976
Arg of perigee: 059.2354 deg
Mean anomaly: 301.0726 deg
Mean motion: 14.59472190 rev/day
Decay rate: 2.59e-06 rev/day^2
Epoch rev: 05595
Checksum: 337
Satellite: NCUBE2
Catalog number: 28897
Epoch time: 06319.18692663
Element set: 0146
Inclination: 098.1473 deg
RA of node: 214.9238 deg
Eccentricity: 0.0018387
Arg of perigee: 061.9029 deg
Mean anomaly: 298.4021 deg
Mean motion: 14.59629107 rev/day
Decay rate: 2.68e-06 rev/day^2
Epoch rev: 04815
Checksum: 335
/EX
More information about the Keps
mailing list